Home   Weather   Summerside   Past weeks

Flag for Canada Past Weather in Summerside, Prince Edward Island, Canada — Yesterday and Last 2 Weeks

Now
61 °F

Cool.


Feels Like: 61 °F
Forecast: 60 / 69 °F
Wind: 7 mph from Southeast

Location: Summerside Airport

Current Time: Aug 30, 2016 at 9:42:56 PM

Latest Report: Aug 30, 2016 at 9:00 PM


Visibility: N/A

Pressure: 29.98 "Hg

Humidity: 74%

Dew Point: 53 °F

Location of SummersideLocation

Past Weather in Summerside — Graph

°F

Summerside Temperature Yesterday

Maximum temperature yesterday: 74 °F (at 3:00 PM)
Minimum temperature yesterday: 59 °F (at 10:00 PM)
Average temperature yesterday: 64 °F

High & Low Weather Summary for the Past Weeks

 TemperatureHumidityPressure
High78 °F (Aug 24, 3:00 PM)100% (Aug 17, 9:00 AM)30.32 "Hg (Aug 17, 9:00 AM)
Low48 °F (Aug 28, 5:00 AM)42% (Aug 28, 5:00 PM)29.66 "Hg (Aug 22, 8:00 PM)
Average66 °F80%29.97 "Hg
* Reported Aug 15 8:00 PM — Aug 30 8:00 PM, Summerside, Weather by CustomWeather, © 2016

Note: Actual official high and low records may vary slightly from our data, if they occured in-between our weather recording intervals... More about our weather records

Advertising

Summerside Weather History for the Previous 24 Hours

Scroll right to see more
 ConditionsComfort  
Time TempWeatherWind HumidityBarometerVisibility
8:00 PM
Tue, Aug 30
60 °FCool.6 mph78%29.98 "HgN/A
7:00 PM64 °FMild.6 mph62%29.98 "HgN/A
6:00 PM64 °FMild.7 mph62%29.99 "HgN/A
5:00 PM64 °FMild.7 mph62%30.00 "HgN/A
4:00 PM65 °FMild.8 mph59%30.01 "HgN/A
3:00 PM65 °FMild.8 mph61%30.02 "HgN/A
2:00 PM65 °FMild.9 mph59%30.02 "HgN/A
1:00 PM65 °FMild.10 mph59%30.03 "HgN/A
12:00 PM65 °FMild.9 mph52%30.03 "HgN/A
11:00 AM64 °FMild.10 mph54%30.04 "HgN/A
10:00 AM61 °FCool.10 mph64%30.03 "HgN/A
9:00 AM62 °FCool.7 mph74%30.01 "HgN/A
8:00 AM58 °FCool.5 mph80%29.99 "HgN/A
7:00 AM55 °FCool.7 mph89%29.98 "HgN/A
6:00 AM55 °FCool.7 mph93%29.97 "HgN/A
5:00 AM56 °FCool.8 mph91%29.97 "HgN/A
4:00 AM57 °FCool.7 mph91%29.95 "HgN/A
3:00 AM57 °FCool.8 mph90%29.93 "HgN/A
2:00 AM59 °FCool.9 mph88%29.92 "HgN/A
1:00 AM59 °FCool.9 mph88%29.92 "HgN/A
12:00 AM60 °FCool.9 mph85%29.91 "HgN/A
11:00 PM
Mon, Aug 29
59 °FCool.9 mph83%29.89 "HgN/A
10:00 PM59 °FCool.7 mph86%29.89 "HgN/A
9:00 PM60 °FCool.8 mph88%29.88 "HgN/A
Weather by CustomWeather, © 2016

See weather overviewHow to use our weather pages